User: anonymous   Login
Location: Bermeries
(50.2863°N, 3.7551°E)
Time: 15:58:48
(UTC+00:00)
Language:

Sich 1 Rocket - Orbit

View from above orbital plane
View from above orbital plane
View from above satellite
View from above satellite

Ground track
Ground track

The orbit data is extracted from the following two-line orbital elements,

1 23659U 95046C   24207.15220564  .00000784  00000-0  10161-3 0  9990
2 23659  82.5281  56.7672 0025830  25.9835 113.3563 14.79362976557975
Epoch (UTC): 25 July 2024 03:39:10
Eccentricity: 0.0025830
inclination: 82.5281°
perigee height: 613 km
apogee height: 649 km
right ascension of ascending node: 56.7672°
argument of perigee: 25.9835°
revolutions per day: 14.79362976
mean anomaly at epoch: 113.3563°
orbit number at epoch: 55797

The dashed part of the orbit path shows where the satellite is in the earth's shadow,  

DLR